This is the latest recevied weather packets stored in our database for station/object N5TDX. If no packets are shown the sender has not sent any weather packets the latest 10 day(s).
| Time | Temp. | Humidity | Pressure | Rain* | Wind** | Luminosity | Snow |
|---|---|---|---|---|---|---|---|
| 1777820171 | 21.67° C | 51% | 1018.6 hPa | 0 mm | - | - | - |
| 1777819868 | 21.11° C | 52% | 1018.2 hPa | 0 mm | - | - | - |
| 1777819565 | 21.11° C | 53% | 1018.8 hPa | 0 mm | - | - | - |
| 1777819263 | 20.56° C | 52% | 1018.7 hPa | 0 mm | - | - | - |
| 1777818959 | 20.56° C | 53% | 1018.5 hPa | 0 mm | - | - | - |
| 1777818656 | 20° C | 55% | 1018.7 hPa | 0 mm | - | - | - |
| 1777818353 | 20° C | 56% | 1018.6 hPa | 0 mm | - | - | - |
| 1777818050 | 19.44° C | 57% | 1018.5 hPa | 0 mm | - | - | - |
| 1777817746 | 19.44° C | 57% | 1018.6 hPa | 0 mm | - | - | - |
| 1777817444 | 18.89° C | 58% | 1018.4 hPa | 0 mm | - | - | - |
| 1777817140 | 18.33° C | 59% | 1018.8 hPa | 0 mm | - | - | - |
| 1777816837 | 17.78° C | 60% | 1018.4 hPa | 0 mm | - | - | - |
| 1777816535 | 17.78° C | 61% | 1018.6 hPa | 0 mm | - | - | - |
| 1777816232 | 17.22° C | 63% | 1018.4 hPa | 0 mm | - | - | - |
| 1777815929 | 16.67° C | 64% | 1018.4 hPa | 0 mm | - | - | - |
| 1777815627 | 16.67° C | 67% | 1018.4 hPa | 0 mm | - | - | - |
| 1777815324 | 16.11° C | 68% | 1018.3 hPa | 0 mm | - | - | - |
| 1777815020 | 15.56° C | 69% | 1018.3 hPa | 0 mm | - | - | - |
| 1777814717 | 15.56° C | 70% | 1018.2 hPa | 0 mm | - | - | - |
| 1777814413 | 15° C | 70% | 1018 hPa | 0 mm | - | - | - |
| 1777814111 | 15° C | 70% | 1018.2 hPa | 0 mm | - | - | - |
| 1777813807 | 14.44° C | 71% | 1018.2 hPa | 0 mm | - | - | - |
| 1777813505 | 14.44° C | 72% | 1018 hPa | 0 mm | - | - | - |
| 1777813203 | 13.89° C | 72% | 1018 hPa | 0 mm | - | - | - |
| 1777812900 | 13.33° C | 74% | 1018 hPa | 0 mm | - | - | - |
* Rain latest hour (hover to see other rain measurements)
** Current wind speed in m/s (hover to see current wind gust speed)